GSAT-6

Last updated on Thu Nov 21 2024 00:02:43 GMT+0000 (Coordinated Universal Time)

1 40880U 15041A 24325.07688414 -.00000158 00000+0 00000+0 0 9998 2 40880 0.4289 90.9635 0003458 150.4122 288.3814 1.00269436 33845
UTC large
Height (km)
Speed (km/s)
/
Latitude / Longitude
Inclination (degrees)
Orbital Period (minutes)
Azimuth
Elevation
Range (km)
Doppler Factor

Next 0 passes for location: London (51.5072 / 0.1276)

Sorry there are no passes over London.